weather.gov     
National Weather Service

Terminal Aerodrome Forecast
NWS Homepage
This page is being discontinued on March 12, 2014.
The same data is available at this site. Please update your bookmarks.
Thank you, and we apologize for the inconvenience.
Please send an email to SR-SRH.Webmaster@noaa.gov with any concerns.


Current Version
Previous Version:    01  02  03  04  05  06  07  08  09  10  11  12  13  14  15  16  17  18  19  20  21  22  23  24  25  
[Printable]
995
FTUS45 KBYZ 220536
TAFMLS
TAF
KMLS 220536Z 2206/2306 28013KT P6SM VCSH BKN100
     FM220700 27011KT P6SM SCT100
     FM221700 28014G21KT P6SM FEW100
     FM230000 24009KT P6SM SKC=


995
FTUS45 KBYZ 220536
TAFMLS
TAF
KMLS 220536Z 2206/2306 28013KT P6SM VCSH BKN100
     FM220700 27011KT P6SM SCT100
     FM221700 28014G21KT P6SM FEW100
     FM230000 24009KT P6SM SKC=




U.S. Dept. of Commerce
NOAA National Weather Service
1325 East West Highway
Silver Spring, MD 20910
E-mail: w-nws.webmaster@noaa.gov
Page last modified: May 16, 2007
NATIONAL WEATHER SERVICE: for Safety, for Work, for Fun - FOR LIFE